Fort Collins, CO

9:38 AM MDT on July 26, 2017 (GMT -0600)
Fort Collins-Loveland Municipal

Weather History for KFNL - January, 2014

Change the Weather History Date:

Friday, January 10, 2014

  Actual Average Record
Temperature  
Mean Temperature 32 °F -  
Max Temperature 39 °F - 55 °F (2001)
Min Temperature 24 °F - 0 °F (2011)
Degree Days  
Heating Degree Days 34    
Month to date heating degree days  
Cooling Degree Days 0    
Month to date cooling degree days  
Moisture  
Dew Point 12 °F    
Average Humidity 44    
Maximum Humidity 64    
Minimum Humidity 33    
Precipitation  
Precipitation 0.00 in - 14.83 in (2002)
Sea Level Pressure  
Sea Level Pressure 29.71 in    
Wind  
Wind Speed 13 mph (NW)    
Max Wind Speed 36 mph    
Max Gust Speed 48 mph    
Visibility 10 miles    
Events      
T = Trace of Precipitation, MM = Missing Value Source: NWS Daily Summary

Daily Weather History Graph

Daily Weather History Graph

Search for Another Location

Airport or City:

Trip Planner

Search our weather history database for the weather conditions in past years. The results will help you decide how hot, cold, wet, or windy it might be!

Date:

Astronomy

Jan. 10, 2014 Rise Set
Actual Time 7:22 AM MST 4:52 PM MST
Civil Twilight 6:52 AM MST 5:23 PM MST
Nautical Twilight 6:18 AM MST 5:56 PM MST
Astronomical Twilight 5:45 AM MST 6:29 PM MST
Moon 12:58 PM MST (1/10) 2:32 AM MST (1/10)
Length of Visible Light 10h 30m
Length of Day
9h 30m
Waxing Gibbous, 75% of the Moon is Illuminated
Jan 10
Waxing Gibbous
Jan 15
Full
Jan 23
Last Quarter
Jan 30
New
Feb 6
First Quarter

Hourly Weather History & Observations

Time (MST) Temp. Windchill Dew Point Humidity Pressure Visibility Wind Dir Wind Speed Gust Speed Precip Events Conditions
12:15 AM 32.0 °F 23.6 °F 19.4 °F 60% 29.69 in 10.0 mi WSW 10.4 mph - N/A   Scattered Clouds
12:35 AM 33.8 °F 25.8 °F 10.4 °F 38% 29.68 in 10.0 mi WSW 10.4 mph - N/A   Scattered Clouds
12:55 AM 33.8 °F 25.8 °F 8.6 °F 35% 29.69 in 10.0 mi NNW 10.4 mph - N/A   Clear
1:15 AM 30.2 °F 18.5 °F 8.6 °F 40% 29.69 in 10.0 mi NW 17.3 mph 24.2 mph N/A   Clear
1:35 AM 30.2 °F 21.9 °F 6.8 °F 37% 29.70 in 10.0 mi NNW 9.2 mph - N/A   Clear
1:55 AM 30.2 °F 18.9 °F 6.8 °F 37% 29.69 in 10.0 mi NW 16.1 mph - N/A   Clear
2:15 AM 30.2 °F 18.1 °F 8.6 °F 40% 29.69 in 10.0 mi NW 18.4 mph 25.3 mph N/A   Clear
2:35 AM 28.4 °F 16.6 °F 8.6 °F 43% 29.68 in 10.0 mi NW 16.1 mph 21.9 mph N/A   Clear
2:55 AM 24.8 °F 17.9 °F 6.8 °F 46% 29.69 in 10.0 mi WNW 5.8 mph - N/A   Clear
3:15 AM 26.6 °F - 6.8 °F 43% 29.69 in 10.0 mi Calm Calm - N/A   Clear
3:35 AM 28.4 °F - 6.8 °F 40% 29.70 in 10.0 mi Calm Calm - N/A   Clear
3:55 AM 32.0 °F 24.2 °F 6.8 °F 35% 29.69 in 10.0 mi WSW 9.2 mph 21.9 mph N/A   Clear
4:15 AM 26.6 °F 19.1 °F 3.2 °F 37% 29.68 in 10.0 mi NNW 6.9 mph - N/A   Clear
4:35 AM 28.4 °F 18.5 °F 6.8 °F 40% 29.68 in 10.0 mi NW 11.5 mph - N/A   Clear
4:55 AM 26.6 °F 20.0 °F 6.8 °F 43% 29.67 in 10.0 mi NW 5.8 mph - N/A   Clear
5:15 AM 28.4 °F 22.2 °F 6.8 °F 40% 29.68 in 10.0 mi NNE 5.8 mph - N/A   Clear
5:35 AM 28.4 °F 24.6 °F 5.0 °F 37% 29.68 in 10.0 mi NNE 3.5 mph - N/A   Scattered Clouds
5:55 AM 26.6 °F 16.8 °F 3.2 °F 37% 29.67 in 10.0 mi North 10.4 mph - N/A   Partly Cloudy
6:15 AM 28.4 °F 17.0 °F 6.8 °F 40% 29.66 in 10.0 mi WNW 15.0 mph 23.0 mph N/A   Clear
6:35 AM 26.6 °F 14.3 °F 6.8 °F 43% 29.65 in 10.0 mi NW 16.1 mph - N/A   Clear
6:55 AM 28.4 °F 16.6 °F 6.8 °F 40% 29.66 in 10.0 mi NW 16.1 mph - N/A   Clear
7:15 AM 30.2 °F 20.2 °F 6.8 °F 37% 29.67 in 10.0 mi NW 12.7 mph - N/A   Clear
7:35 AM 30.2 °F 19.8 °F 6.8 °F 37% 29.66 in 10.0 mi WNW 13.8 mph - N/A   Clear
7:55 AM 30.2 °F 18.9 °F 8.6 °F 40% 29.67 in 10.0 mi NW 16.1 mph 20.7 mph N/A   Clear
8:15 AM 32.0 °F 23.6 °F 8.6 °F 38% 29.68 in 10.0 mi NW 10.4 mph - N/A   Clear
8:35 AM 33.8 °F 23.2 °F 10.4 °F 38% 29.67 in 10.0 mi NNW 17.3 mph 32.2 mph N/A   Clear
8:55 AM 30.2 °F 24.3 °F 10.4 °F 44% 29.67 in 10.0 mi SSW 5.8 mph - N/A   Clear
9:15 AM 28.4 °F 19.7 °F 10.4 °F 47% 29.68 in 10.0 mi ESE 9.2 mph - N/A   Clear
9:35 AM 28.4 °F 23.3 °F 10.4 °F 47% 29.69 in 10.0 mi ESE 4.6 mph 17.3 mph N/A   Clear
9:55 AM 28.4 °F 20.4 °F 8.6 °F 43% 29.68 in 10.0 mi SE 8.1 mph 17.3 mph N/A   Clear
10:15 AM 30.2 °F 26.7 °F 10.4 °F 44% 29.69 in 10.0 mi SE 3.5 mph - N/A   Clear
10:35 AM 37.4 °F 30.8 °F 10.4 °F 33% 29.69 in 10.0 mi NNW 9.2 mph - N/A   Clear
10:55 AM 37.4 °F 30.8 °F 10.4 °F 33% 29.69 in 10.0 mi WNW 9.2 mph 26.5 mph N/A   Clear
11:15 AM 37.4 °F 26.6 °F 12.2 °F 36% 29.68 in 10.0 mi WNW 21.9 mph 29.9 mph N/A   Clear
11:35 AM 37.4 °F 28.9 °F 14.0 °F 38% 29.66 in 10.0 mi West 13.8 mph - N/A   Clear
11:55 AM 37.4 °F 30.8 °F 12.2 °F 36% 29.65 in 10.0 mi West 9.2 mph 19.6 mph N/A   Clear
12:15 PM 37.4 °F 26.6 °F 12.2 °F 36% 29.64 in 10.0 mi WNW 21.9 mph 26.5 mph N/A   Clear
12:35 PM 37.4 °F 26.6 °F 15.8 °F 41% 29.63 in 10.0 mi WNW 21.9 mph 29.9 mph N/A   Clear
12:55 PM 37.4 °F 25.0 °F 17.6 °F 45% 29.62 in 10.0 mi WNW 29.9 mph 34.5 mph N/A   Clear
1:15 PM 39.2 °F 27.6 °F 17.6 °F 42% 29.63 in 10.0 mi WNW 28.8 mph 36.8 mph N/A   Clear
1:35 PM 39.2 °F 27.8 °F 17.6 °F 42% 29.63 in 10.0 mi WNW 27.6 mph 36.8 mph N/A   Clear
1:55 PM 37.4 °F 24.2 °F 17.6 °F 45% 29.65 in 7.0 mi WNW 34.5 mph 48.3 mph N/A   Clear
2:15 PM 37.4 °F 24.0 °F 17.6 °F 45% 29.65 in 10.0 mi WNW 35.7 mph 41.4 mph N/A   Clear
2:35 PM 37.4 °F 24.0 °F 17.6 °F 45% 29.67 in 10.0 mi WNW 35.7 mph 43.7 mph N/A   Clear
2:55 PM 37.4 °F 25.9 °F 17.6 °F 45% 29.69 in 10.0 mi WNW 25.3 mph 31.1 mph N/A   Clear
3:15 PM 37.4 °F 25.6 °F 17.6 °F 45% 29.70 in 10.0 mi WNW 26.5 mph 32.2 mph N/A   Clear
3:35 PM 37.4 °F 27.5 °F 17.6 °F 45% 29.72 in 10.0 mi WNW 18.4 mph 28.8 mph N/A   Clear
3:55 PM 37.4 °F 27.2 °F 17.6 °F 45% 29.72 in 10.0 mi WNW 19.6 mph 26.5 mph N/A   Clear
4:15 PM 37.4 °F 28.5 °F 17.6 °F 45% 29.74 in 10.0 mi NW 15.0 mph - N/A   Clear
4:35 PM 35.6 °F 28.0 °F 15.8 °F 44% 29.74 in 10.0 mi NNW 10.4 mph 19.6 mph N/A   Clear
4:55 PM 33.8 °F 26.4 °F 15.8 °F 48% 29.74 in 10.0 mi NW 9.2 mph - N/A   Clear
5:15 PM 35.6 °F 24.0 °F 15.8 °F 44% 29.76 in 10.0 mi WNW 23.0 mph 31.1 mph N/A   Clear
5:35 PM 35.6 °F 25.5 °F 17.6 °F 48% 29.77 in 10.0 mi NW 17.3 mph 24.2 mph N/A   Clear
6:35 PM 35.6 °F 24.0 °F 15.8 °F 44% 29.78 in 10.0 mi NW 23.0 mph 32.2 mph N/A   Clear
6:55 PM 35.6 °F 24.0 °F 15.8 °F 44% 29.78 in 10.0 mi NW 23.0 mph 29.9 mph N/A   Clear
7:15 PM 35.6 °F 24.2 °F 17.6 °F 48% 29.79 in 10.0 mi NW 21.9 mph 32.2 mph N/A   Clear
7:35 PM 35.6 °F 25.2 °F 17.6 °F 48% 29.79 in 10.0 mi NW 18.4 mph 28.8 mph N/A   Clear
7:55 PM 35.6 °F 22.5 °F 17.6 °F 48% 29.79 in 10.0 mi NW 29.9 mph 40.3 mph N/A   Clear
8:15 PM 35.6 °F 26.6 °F 17.6 °F 48% 29.79 in 10.0 mi NW 13.8 mph 21.9 mph N/A   Clear
8:35 PM 33.8 °F 26.4 °F 17.6 °F 52% 29.81 in 10.0 mi NW 9.2 mph - N/A   Clear
8:55 PM 33.8 °F 27.0 °F 15.8 °F 48% 29.81 in 10.0 mi NNW 8.1 mph - N/A   Clear
9:15 PM 35.6 °F 25.5 °F 15.8 °F 44% 29.81 in 10.0 mi NW 17.3 mph 20.7 mph N/A   Clear
9:35 PM 35.6 °F 26.2 °F 17.6 °F 48% 29.81 in 10.0 mi NNW 15.0 mph 23.0 mph N/A   Clear
9:55 PM 35.6 °F 27.1 °F 17.6 °F 48% 29.81 in 10.0 mi NNW 12.7 mph - N/A   Clear
10:15 PM 33.8 °F 23.9 °F 17.6 °F 52% 29.82 in 10.0 mi NNW 15.0 mph - N/A   Clear
10:35 PM 32.0 °F 24.8 °F 15.8 °F 51% 29.83 in 10.0 mi WSW 8.1 mph - N/A   Clear
10:55 PM 26.6 °F 19.1 °F 14.0 °F 59% 29.85 in 10.0 mi SW 6.9 mph - N/A   Clear
11:15 PM 26.6 °F 22.6 °F 15.8 °F 64% 29.84 in 10.0 mi SSW 3.5 mph - N/A   Clear
11:35 PM 24.8 °F 16.1 °F 12.2 °F 59% 29.86 in 10.0 mi SSW 8.1 mph - N/A   Clear
11:55 PM 24.8 °F 17.9 °F 14.0 °F 64% 29.86 in 10.0 mi SSW 5.8 mph - N/A   Clear